[[{"header":{"parameterUnit":"m.s-1","parameterCategory":1,"la1":30.2991,"la2":30.254,"lo1":-89.0895,"lo2":-89.0444,"dy":0.0017,"dx":0.0017,"nx":28,"ny":28,"refTime":"2024-05-16T03:00:00:Z","depth":0,"parameterNumber":2,"parameterNumberName":"U-component_of_WINDS"},"data":[0,0,0,0,0,0,0,0,0,0,0,0,0,0,0,0,0,0,0,0,0,0,0,0,0,0,0,0,0,0,0,0,0,0,0,0,0,0,0,0,0,0,0,0,0,0,0,0,0,0,0,0,0,0,0,0,0,0,-1.9857,-1.9858,0,-1.9905,-1.9906,-1.9906,-1.9924,-1.9924,-1.9924,-1.9924,-1.9972,-1.9973,-1.9975,0,0,0,0,0,0,0,0,0,0,0,0,0,-1.978,-1.9781,-1.9857,-1.9858,-1.9858,-1.9905,-1.9906,-1.9907,-1.9924,-1.9924,-1.9924,-1.9924,-1.9971,-1.9973,-1.9975,0,0,0,0,0,0,0,0,0,0,0,0,0,-1.9819,-1.9782,-1.9857,-1.9873,-1.9875,-1.9905,-1.9906,-1.9907,-1.9924,-1.9924,-1.9924,-1.9923,-1.9971,-1.9973,-1.9975,-1.9993,0,0,-1.9982,-1.9983,0,0,0,0,0,0,0,0,-1.9817,-1.9822,-1.987,-1.9872,-1.9874,-1.9909,-1.9897,-1.9936,-1.9924,-1.9905,-1.9924,-1.9923,-1.9951,-1.9955,-1.9964,-1.9995,-1.9997,-1.9982,-1.9983,-1.9984,-1.9985,0,0,0,0,0,0,0,-1.9814,-1.982,-1.9876,-1.9871,-1.9873,-1.9877,-1.9883,-1.9904,-1.9929,-1.9907,-1.9908,-1.9914,-1.9952,-1.9962,-1.9966,-1.9998,-1.9982,-1.9984,-1.9985,-1.9986,-2.0047,-2.0048,0,0,0,0,0,0,-1.9809,-1.9818,-1.9875,-1.9878,-1.9844,-1.9879,-1.9885,-1.9898,-1.9929,-1.9933,-1.9914,-1.9915,-1.9959,-1.9963,-1.9967,-1.9991,-1.9984,-1.9986,-1.9987,-2.0047,-2.0047,-2.0048,0,0,0,0,0,0,-1.9807,-1.9814,-1.9873,-1.9848,-1.9856,-1.9881,-1.9895,-1.9899,-1.9909,-1.9934,-1.9938,-1.992,-1.9959,-1.9964,-1.9987,-1.9993,-1.9987,-1.9989,-2.0047,-2.0047,-2.0048,-2.0038,0,0,0,0,0,0,-1.9805,-1.9813,-1.982,-1.9848,-1.9857,-1.9891,-1.9895,-1.99,-1.9913,-1.9914,-1.9941,-1.9945,-1.9959,-1.9984,-1.9989,-1.9996,-1.9991,-2.0046,-2.0047,-2.0047,-2.0037,-2.0038,-2.0038,0,0,0,0,0,-1.9802,-1.9815,-1.9821,-1.9827,-1.9867,-1.9892,-1.9897,-1.9913,-1.9913,-1.992,-1.9937,-1.9944,-1.9991,-1.9986,-1.9992,-1.9999,-2.0046,-2.0047,-2.0047,-2.0037,-2.0038,-2.0038,0,0,0,0,0,0,-1.9787,-1.9819,-1.9825,-1.9848,-1.9867,-1.9895,-1.9904,-1.9913,-1.9932,-1.9932,-1.9951,-1.9957,-1.9978,-1.9991,-1.9984,-2.0019,-2.0019,-2.0021,-2.0009,-2.001,-2.001,-2.0006,-1.9992,0,0,0,0,0,-1.9786,-1.9804,-1.9831,-1.9848,-1.9858,-1.9879,-1.9891,-1.9902,-1.9922,-1.993,-1.9948,-1.9968,-1.9987,-1.9999,-2.0018,-2.004,-2.0046,-2.0048,-2.0048,-2.0048,-2.0049,-2.0062,-2.0063,-2.005,-2.005,-2.005,0,0,-1.9785,-1.9805,-1.9815,-1.9846,-1.9862,-1.988,-1.9886,-1.9905,-1.9918,-1.9933,-1.9956,-1.997,-1.9992,-2.0015,-2.0025,-2.0026,-2.0055,-2.0049,-2.0049,-2.005,-2.0063,-2.0064,-2.0065,-2.0051,-2.0051,-2.0051,0,0,-1.9791,-1.9808,-1.9824,-1.9841,-1.9865,-1.988,-1.9884,-1.991,-1.992,-1.9944,-1.9955,-1.9972,-2.0004,-2.002,-2.0033,-2.0047,-2.0054,-2.0052,-2.0053,-2.0065,-2.0066,-2.0067,-2.0072,-2.0074,-2.0054,-2.0054,-2.0054,0,-1.9786,-1.9814,-1.9832,-1.985,-1.9863,-1.9878,-1.9895,-1.991,-1.9939,-1.9948,-1.9949,-1.9991,-2.0008,-2.0034,-2.0037,-2.0047,-2.0052,-2.0049,-2.0065,-2.0066,-2.0067,-2.0072,-2.0074,-2.0053,-2.0053,-2.0053,-2.0053,0,-1.9807,-1.9826,-1.9836,-1.9865,-1.9879,-1.9897,-1.9917,-1.993,-1.994,-1.9954,-1.9978,-1.9998,-2.0022,-2.0029,-2.0039,-2.0057,-2.0057,-2.0061,-2.0062,-2.0068,-2.0073,-2.0075,-2.0053,-2.0053,-2.0053,-2.0053,0,0,-1.9804,-1.9843,-1.9846,-1.9859,-1.9888,-1.9903,-1.9922,-1.9946,-1.9956,-1.9976,-1.9992,-2.002,-2.0024,-2.0038,-2.005,-2.0061,-2.0071,-2.0063,-2.0064,-2.0064,-2.0092,-2.0089,-2.0091,-2.0076,-2.0077,-2.0077,-2.009,0,-1.9814,-1.9847,-1.9864,-1.9891,-1.9909,-1.9924,-1.994,-1.9959,-1.9973,-1.9991,-2.0007,-2.0026,-2.003,-2.0039,-2.005,-2.0067,-2.0076,-2.0066,-2.0091,-2.0091,-2.0084,-2.0093,-2.009,-2.0101,-2.0092,-2.0093,-2.0093,0,-1.983,-1.985,-1.9879,-1.9906,-1.9914,-1.9928,-1.9952,-1.9968,-1.9991,-2.0,-2.0017,-2.0028,-2.0048,-2.0048,-2.0076,-2.0069,-2.008,-2.009,-2.0091,-2.0093,-2.0092,-2.0096,-2.0106,-2.0107,-2.0096,-2.0096,-2.0096,0,-1.9825,-1.986,-1.9881,-1.9892,-1.9925,-1.9934,-1.9948,-1.997,-1.9984,-2.0004,-2.0013,-2.0036,-2.0048,-2.0065,-2.0083,-2.0081,-2.0109,-2.011,-2.0117,-2.0117,-2.0122,-2.0121,-2.0133,-2.013,-2.013,-2.013,-2.013,0,-1.9835,-1.9851,-1.988,-1.9893,-1.9912,-1.9931,-1.995,-1.9965,-1.9985,-2.0001,-2.0016,-2.0031,-2.0053,-2.0071,-2.0085,-2.0106,-2.0111,-2.012,-2.0123,-2.0118,-2.0117,-2.0125,-2.0125,-2.013,-2.013,-2.013,-2.013,0,-1.9832,-1.9852,-1.9876,-1.9905,-1.9913,-1.9926,-1.995,-1.9964,-1.9979,-2.0,-2.0006,-2.003,-2.0052,-2.0071,-2.01,-2.0109,-2.0131,-2.0135,-2.0123,-2.0125,-2.0131,-2.013,-2.0148,-2.0152,-2.0146,-2.0146,-2.0146,0,-1.9836,-1.985,-1.988,-1.9892,-1.9906,-1.9926,-1.994,-1.996,-1.9973,-2.0001,-2.0011,-2.0034,-2.0053,-2.0088,-2.0108,-2.013,-2.0135,-2.014,-2.0138,-2.0133,-2.0135,-2.0134,-2.0135,-2.0139,-2.0139,-2.0139,-2.0139,0,-1.9842,-1.9852,-1.9871,-1.9895,-1.9911,-1.993,-1.995,-1.9959,-1.9983,-1.9998,-2.0021,-2.0036,-2.0066,-2.0089,-2.0113,-2.0128,-2.0137,-2.014,-2.0143,-2.0138,-2.013,-2.0134,-2.0123,-2.0139,-2.0139,-2.0139,-2.0139,-2.0139,-1.9844,-1.9856,-1.988,-1.9901,-1.9918,-1.9937,-1.9951,-1.9968,-1.9988,-2.0014,-2.0025,-2.0048,-2.0071,-2.0105,-2.0119,-2.0138,-2.014,-2.0144,-2.0145,-2.0145,-2.0144,-2.0128,-2.0142,-2.0142,-2.0143,-2.0143,-2.0143,0,-1.985,-1.9866,-1.9886,-1.9913,-1.993,-1.9939,-1.9961,-1.9975,-1.9995,-2.0016,-2.0035,-2.0061,-2.0084,-2.0106,-2.013,-2.014,-2.0145,-2.0146,-2.0145,-2.0148,-2.0142,-2.0137,-2.0141,-2.0141,-2.0141,-2.0141,-2.0141,-2.0141,-1.9856,-1.9877,-1.989,-1.992,-1.9936,-1.9959,-1.9971,-1.9988,-2.0005,-2.0034,-2.0053,-2.0067,-2.0089,-2.0114,-2.0135,-2.0141,-2.0149,-2.0148,-2.0155,-2.0149,-2.0148,-2.0148,-2.0144,-2.015,-2.015,-2.016,-2.016,-2.016]},{"header":{"parameterUnit":"m.s-1","parameterCategory":1,"la1":30.2991,"la2":30.254,"lo1":-89.0895,"lo2":-89.0444,"dy":0.0017,"dx":0.0017,"nx":28,"ny":28,"refTime":"2024-05-16T03:00:00:Z","depth":0,"parameterNumber":3,"parameterNumberName":"V-component_of_WINDS"},"data":[0,0,0,0,0,0,0,0,0,0,0,0,0,0,0,0,0,0,0,0,0,0,0,0,0,0,0,0,0,0,0,0,0,0,0,0,0,0,0,0,0,0,0,0,0,0,0,0,0,0,0,0,0,0,0,0,0,0,4.6211,4.6211,0,4.6266,4.6267,4.6267,4.6217,4.6215,4.6212,4.6211,4.6267,4.627,4.6274,0,0,0,0,0,0,0,0,0,0,0,0,0,4.606,4.6063,4.6211,4.6211,4.6212,4.6266,4.6267,4.6267,4.6217,4.6214,4.6212,4.621,4.6266,4.627,4.6274,0,0,0,0,0,0,0,0,0,0,0,0,0,4.6121,4.6064,4.621,4.6193,4.6192,4.6266,4.6267,4.6268,4.6217,4.6214,4.6211,4.6208,4.6264,4.6269,4.6275,4.6368,0,0,4.629,4.6292,0,0,0,0,0,0,0,0,4.6118,4.6127,4.6195,4.6195,4.6194,4.6231,4.6234,4.6301,4.6218,4.6208,4.621,4.6207,4.6258,4.6263,4.628,4.637,4.6373,4.6291,4.6294,4.6296,4.6297,0,0,0,0,0,0,0,4.6114,4.6124,4.6232,4.6196,4.6195,4.6182,4.6188,4.6247,4.6249,4.6209,4.6205,4.6212,4.6256,4.6275,4.6281,4.6374,4.629,4.6295,4.6298,4.63,4.6542,4.6545,0,0,0,0,0,0,4.6111,4.6121,4.6231,4.6234,4.6147,4.6188,4.6194,4.6222,4.6249,4.625,4.6215,4.621,4.6268,4.6275,4.6283,4.6394,4.6296,4.6301,4.6304,4.6539,4.6543,4.6546,0,0,0,0,0,0,4.6108,4.6122,4.6228,4.6177,4.6189,4.6193,4.6226,4.6225,4.6244,4.6253,4.6253,4.6234,4.6266,4.6276,4.6347,4.6395,4.6303,4.6308,4.6535,4.654,4.6545,4.6616,0,0,0,0,0,0,4.6104,4.6121,4.6157,4.6178,4.6192,4.6292,4.6229,4.6228,4.6253,4.6247,4.6271,4.6272,4.6264,4.6339,4.6352,4.64,4.6312,4.653,4.6537,4.6543,4.661,4.6623,4.6635,0,0,0,0,0,4.6099,4.6175,4.6159,4.6172,4.6237,4.6295,4.6303,4.6293,4.6257,4.6293,4.6299,4.6271,4.6387,4.6347,4.6361,4.6411,4.6527,4.6535,4.6542,4.6604,4.662,4.6634,0,0,0,0,0,0,4.616,4.6177,4.616,4.6245,4.6269,4.6286,4.6332,4.6311,4.6346,4.6338,4.6323,4.6329,4.6405,4.6415,4.637,4.6502,4.6451,4.6462,4.6494,4.6509,4.6521,4.6518,4.6316,0,0,0,0,0,4.6183,4.6229,4.6241,4.6315,4.6328,4.6328,4.6353,4.6342,4.6367,4.6377,4.6388,4.6412,4.6454,4.6482,4.6521,4.661,4.6615,4.6651,4.6664,4.6674,4.6684,4.6732,4.6748,4.6571,4.6571,4.6571,0,0,4.6232,4.6247,4.6277,4.6328,4.6345,4.6393,4.6337,4.6389,4.6424,4.6384,4.6453,4.6461,4.6487,4.6568,4.6604,4.6579,4.6734,4.6684,4.6692,4.6696,4.6741,4.6758,4.6773,4.6576,4.6575,4.6574,0,0,4.6345,4.6361,4.6424,4.6442,4.6469,4.6468,4.6483,4.6504,4.6508,4.6576,4.6547,4.6587,4.666,4.668,4.6699,4.6818,4.6794,4.6831,4.6897,4.6944,4.6958,4.697,4.7013,4.7028,4.684,4.6841,4.6841,0,4.6402,4.6473,4.6459,4.6514,4.6537,4.6502,4.6566,4.6584,4.6622,4.6639,4.661,4.6699,4.6714,4.6799,4.6828,4.6845,4.6861,4.6829,4.6957,4.6969,4.698,4.7021,4.7037,4.6845,4.6844,4.6844,4.6844,0,4.6542,4.6591,4.6639,4.6677,4.6705,4.6764,4.6758,4.6788,4.6775,4.6777,4.6846,4.6862,4.6904,4.6923,4.6911,4.7006,4.699,4.6959,4.6908,4.7002,4.704,4.7055,4.6851,4.685,4.6848,4.6847,0,0,4.6698,4.6725,4.6743,4.676,4.6786,4.6823,4.688,4.692,4.6947,4.6973,4.7021,4.7082,4.7053,4.7076,4.7065,4.7106,4.7199,4.707,4.707,4.7094,4.7305,4.7329,4.7348,4.7182,4.7185,4.7188,4.7303,0,4.6813,4.6912,4.69,4.6994,4.704,4.7006,4.7055,4.7076,4.7079,4.7117,4.712,4.7164,4.7123,4.7136,4.7174,4.718,4.7241,4.7171,4.7227,4.7229,4.7223,4.7367,4.7393,4.7502,4.7318,4.732,4.7322,0,4.6961,4.6992,4.7092,4.711,4.7128,4.7173,4.7208,4.7245,4.7268,4.7267,4.7291,4.7273,4.7329,4.7275,4.7352,4.7305,4.7326,4.7332,4.7336,4.7342,4.7283,4.7379,4.7536,4.7553,4.7345,4.7344,4.7342,0,4.7065,4.7133,4.72,4.7215,4.7238,4.727,4.7281,4.73,4.7325,4.7356,4.7372,4.7409,4.7429,4.7458,4.745,4.7411,4.7529,4.7475,4.753,4.7531,4.7558,4.7557,4.7723,4.757,4.757,4.7569,4.7569,0,4.7196,4.7258,4.7248,4.729,4.7358,4.7343,4.7411,4.7417,4.7435,4.7477,4.7449,4.749,4.7476,4.7515,4.7509,4.7574,4.7583,4.7584,4.7582,4.7588,4.7588,4.7603,4.7596,4.7574,4.7573,4.7572,4.7571,0,4.7326,4.7321,4.7393,4.7408,4.7413,4.7463,4.7475,4.7514,4.7514,4.7568,4.7579,4.7579,4.7624,4.7618,4.7668,4.7663,4.7745,4.7733,4.7738,4.7735,4.7792,4.7787,4.7975,4.7999,4.7829,4.7831,4.7832,0,4.741,4.7457,4.7477,4.7503,4.7516,4.7559,4.7583,4.7569,4.7596,4.7625,4.7661,4.7703,4.7736,4.7809,4.7813,4.785,4.784,4.7903,4.7846,4.785,4.7842,4.784,4.7845,4.7915,4.7917,4.7919,4.792,0,4.7561,4.7556,4.7593,4.7629,4.7659,4.7687,4.7712,4.7735,4.7723,4.7754,4.78,4.7825,4.7875,4.7918,4.7953,4.7963,4.7941,4.7937,4.7952,4.796,4.7961,4.7962,4.777,4.7934,4.7932,4.7931,4.7931,4.793,4.7672,4.7712,4.7732,4.7773,4.779,4.7814,4.7851,4.7855,4.7892,4.7932,4.7921,4.7972,4.7992,4.8037,4.8051,4.8091,4.8068,4.809,4.8095,4.8101,4.8109,4.7953,4.8097,4.8097,4.8096,4.8096,4.8095,0,4.7823,4.7833,4.7871,4.7906,4.7939,4.7913,4.7938,4.7967,4.8013,4.8033,4.8066,4.8118,4.8158,4.8164,4.8202,4.8233,4.8223,4.8244,4.8242,4.8245,4.8126,4.811,4.8251,4.8251,4.8251,4.8251,4.8251,4.8251,4.7905,4.7971,4.7968,4.8042,4.8052,4.8102,4.8119,4.814,4.8156,4.8215,4.8248,4.8252,4.8266,4.8305,4.8341,4.8341,4.8357,4.8382,4.8379,4.8269,4.8253,4.8239,4.8223,4.8385,4.8386,4.8495,4.8496,4.8496]}]]